Simultaneous Nadir Overpasses (SNOs) Predictions

Prediction of SNOs between NOAA-19 and METOP-C Satellite Orbit:

Table of predicted SNOs for the next 14.0 days since TLE Epoch: 3/6/2020
Index Date (NOAA-19) Time (NOAA-19) Lat,Lon (NOAA-19) SZA (NOAA-19 ) Date (METOP-C) Time (METOP-C) Lat,Lon (METOP-C) SZA (METOP-C ) Distance(km) Time Diff (sec)
1 03/09/2020 05:28:24 79.83, 118.68 84.59 03/09/2020 05:29:31 79.83, 118.64 84.60 0.78 67
2 03/09/2020 06:19:29 -79.81, -73.95 95.44 03/09/2020 06:20:12 -79.84, -73.97 95.41 2.49 43
3 03/09/2020 07:10:25 79.83, 93.08 84.56 03/09/2020 07:10:53 79.82, 93.19 84.56 2.98 28
4 03/09/2020 08:01:30 -79.82, -99.55 95.46 03/09/2020 08:01:34 -79.82, -99.42 95.45 2.48 4
5 03/09/2020 08:52:25 79.82, 67.78 84.53 03/09/2020 08:52:15 79.81, 67.74 84.51 1.41 10
6 03/09/2020 09:43:30 -79.81,-124.85 95.49 03/09/2020 09:42:56 -79.81,-124.87 95.50 0.88 34
7 03/09/2020 10:34:25 79.80, 42.48 84.50 03/09/2020 10:33:36 79.83, 42.58 84.51 3.46 49
8 03/09/2020 11:25:31 -79.81,-150.45 95.52 03/09/2020 11:24:18 -79.80,-150.32 95.54 2.94 73
9 03/20/2020 05:51:07 -79.84, -66.75 99.68 03/20/2020 05:52:18 -79.86, -66.71 99.64 2.64 71
10 03/20/2020 06:42:03 79.85, 100.42 80.31 03/20/2020 06:42:59 79.85, 100.52 80.33 1.87 56
11 03/20/2020 07:33:08 -79.85, -92.35 99.71 03/20/2020 07:33:41 -79.82, -92.45 99.73 3.67 33
12 03/20/2020 08:24:03 79.83, 75.12 80.28 03/20/2020 08:24:21 79.84, 75.06 80.29 1.49 18
13 03/20/2020 09:15:08 -79.83,-117.66 99.74 03/20/2020 09:15:02 -79.84,-117.61 99.73 1.15 6
14 03/20/2020 10:06:04 79.84, 49.52 80.25 03/20/2020 10:05:43 79.83, 49.61 80.24 2.25 21
15 03/20/2020 10:57:08 -79.82,-142.96 99.77 03/20/2020 10:56:24 -79.83,-143.07 99.78 2.43 44
16 03/20/2020 11:48:04 79.83, 24.22 80.22 03/20/2020 11:47:05 79.82, 24.16 80.20 1.37 59




NCC Satellite Simultaneous Nadir Overpasses (SNOs) Prediction Service
